Total_Precipitation_Accumulation
1.99 1.57 2.61 2.59 2.33 2.04 1.84 1.85 1.91 1.96 2.04 1.96 1.85 1.67 1.54 1.44 1.24 1.11 1.05 1.00 0.97 1.00 1.10 1.15 1.07 1.04 0.93 0.90 0.91 0.94 0.97 0.95 0.94 0.86 0.78 0.77 0.80 0.91 1.10 1.25 1.49 1.89 1.51
1.38 1.30 2.27 2.56 2.35 2.12 2.02 1.98 1.93 1.96 1.99 1.84 1.69 1.58 1.42 1.28 1.18 1.09 1.02 1.00 0.95 0.88 0.95 1.04 1.05 1.07 1.04 1.00 1.07 1.12 1.08 1.03 1.07 1.03 1.06 1.11 0.99 0.98 1.00 1.17 1.58 1.85 1.43
1.19 1.16 1.71 2.42 2.36 2.17 2.14 2.06 1.96 1.90 1.79 1.64 1.54 1.36 1.25 1.12 1.06 1.02 1.00 1.00 0.97 0.87 0.88 0.98 1.06 1.09 1.07 1.13 1.15 1.18 1.17 1.16 1.15 1.16 1.52 2.00 1.53 1.19 1.19 1.21 1.28 1.28 1.28
0.97 1.00 1.31 1.99 2.03 1.96 1.97 1.89 1.82 1.66 1.49 1.53 1.55 1.35 1.22 1.12 1.06 1.08 1.10 0.99 0.94 0.88 0.91 0.99 1.08 1.10 1.11 1.12 1.09 1.07 1.10 1.15 1.24 1.22 1.57 2.01 1.97 1.57 1.41 1.39 1.25 1.22 1.32
0.82 0.99 1.44 1.89 1.87 1.86 1.81 1.65 1.64 1.48 1.32 1.32 1.38 1.33 1.30 1.19 1.06 1.02 1.05 1.04 1.00 0.95 0.94 0.96 1.01 1.06 1.11 1.14 1.10 1.05 1.08 1.30 1.26 1.13 1.38 1.73 2.19 1.83 1.48 1.46 1.36 1.34 1.41
0.94 0.97 1.23 1.61 1.67 1.67 1.58 1.51 1.49 1.37 1.32 1.23 1.18 1.23 1.27 1.21 1.12 1.04 1.08 1.04 0.98 0.99 1.03 1.04 1.07 1.11 1.10 1.11 1.11 1.18 1.23 1.27 1.12 1.25 1.46 1.70 2.02 1.79 1.39 1.29 1.39 1.51 1.61
0.83 0.82 0.96 1.43 1.48 1.47 1.40 1.39 1.45 1.38 1.30 1.18 1.13 1.23 1.35 1.26 1.18 1.10 1.12 1.07 1.02 0.99 1.04 1.06 1.11 1.13 1.04 1.05 1.11 1.13 1.23 1.17 1.17 1.36 1.46 1.65 1.67 1.60 1.35 1.24 1.41 1.53 1.63
0.95 0.84 0.89 1.41 1.52 1.37 1.31 1.28 1.35 1.40 1.31 1.18 1.14 1.15 1.20 1.18 1.10 1.10 1.06 1.08 1.06 1.03 1.05 1.05 1.09 1.11 0.98 0.97 0.99 1.04 1.18 1.09 1.01 1.18 1.35 1.61 1.75 1.63 1.29 1.20 1.27 1.41 1.57
1.27 1.17 1.10 1.27 1.34 1.35 1.31 1.26 1.43 1.53 1.40 1.22 1.11 1.09 1.05 1.04 1.00 0.99 0.98 1.05 1.05 1.04 1.04 1.04 1.10 1.14 1.04 0.95 0.96 1.07 1.23 1.12 0.94 1.11 1.15 1.55 1.83 1.67 1.37 1.22 1.21 1.39 1.51
1.23 1.19 1.21 1.29 1.30 1.31 1.34 1.44 1.59 1.91 1.78 1.39 1.15 1.02 0.97 0.89 0.89 0.97 0.93 0.96 1.05 1.12 1.16 1.17 1.22 1.18 1.14 1.05 1.05 1.17 1.20 0.94 0.89 0.89 1.09 1.40 1.88 1.72 1.41 1.22 1.14 1.19 1.27
0.94 0.98 1.07 1.14 1.18 1.24 1.22 1.38 1.67 1.99 2.03 1.67 1.35 1.19 0.97 0.69 0.70 0.86 0.95 1.06 1.17 1.24 1.34 1.41 1.42 1.32 1.23 1.11 1.13 1.19 0.97 0.74 0.95 1.00 1.17 1.53 1.79 1.76 1.44 1.19 1.07 1.10 1.07
0.73 0.69 0.72 0.76 0.86 0.93 0.95 1.20 1.43 1.50 1.70 1.46 1.40 1.26 1.08 1.01 0.94 0.76 0.84 1.12 1.33 1.33 1.35 1.43 1.51 1.29 1.02 0.82 0.91 0.97 0.75 0.71 0.86 0.93 1.14 1.68 2.00 1.91 1.52 1.26 1.17 1.12 1.03
0.65 0.64 0.59 0.57 0.64 0.75 0.86 1.04 1.22 1.37 1.53 1.51 1.47 1.40 1.39 1.34 1.00 0.84 0.94 1.04 1.17 1.19 1.10 1.18 1.20 1.00 0.82 0.74 0.84 0.78 0.68 0.70 0.80 0.91 1.23 1.77 2.18 2.07 1.63 1.31 1.29 1.23 1.17
0.57 0.68 0.63 0.47 0.48 0.55 0.63 0.80 0.98 1.19 1.37 1.39 1.21 1.12 1.24 1.27 1.07 0.94 1.09 1.17 1.22 1.22 1.26 1.27 1.20 1.06 0.84 0.78 0.81 0.81 0.75 0.77 0.81 0.89 1.14 1.44 1.92 2.09 1.89 1.60 1.53 1.43 1.42
0.57 0.65 0.66 0.57 0.49 0.50 0.56 0.63 0.67 0.96 1.13 1.27 1.30 1.08 1.20 1.24 1.18 1.05 0.98 1.16 1.16 1.21 1.25 1.32 1.33 1.20 1.09 0.99 0.94 0.87 0.91 0.86 0.82 0.79 0.98 1.10 1.37 1.81 2.03 2.00 1.95 1.72 1.62
0.52 0.59 0.62 0.64 0.60 0.57 0.56 0.57 0.56 0.62 0.73 0.84 0.79 0.76 0.96 1.08 1.08 1.08 0.93 1.00 1.10 1.25 1.45 1.52 1.37 1.28 1.22 1.16 1.16 1.09 1.05 0.97 0.91 0.80 0.90 0.97 0.93 1.14 1.53 1.99 2.21 2.04 1.86
0.47 0.53 0.57 0.62 0.66 0.67 0.67 0.74 0.69 0.64 0.68 0.68 0.64 0.64 0.75 0.87 0.94 1.05 1.04 1.00 1.04 1.25 1.50 1.65 1.53 1.42 1.27 1.26 1.26 1.25 1.13 1.10 1.03 0.93 0.96 1.08 0.93 0.88 1.16 1.67 2.10 2.23 2.11
0.43 0.41 0.45 0.48 0.53 0.57 0.62 0.70 0.78 0.78 0.79 0.76 0.79 0.75 0.71 0.84 0.96 1.08 1.13 1.07 1.07 1.27 1.51 1.70 1.76 1.72 1.60 1.53 1.45 1.37 1.30 1.37 1.22 1.10 1.08 1.16 1.26 1.10 1.07 1.29 1.61 1.91 2.14
0.39 0.34 0.33 0.34 0.35 0.39 0.43 0.54 0.67 0.75 0.84 0.90 0.91 0.92 0.93 0.98 0.99 1.11 1.28 1.30 1.30 1.41 1.51 1.56 1.67 1.67 1.69 1.70 1.51 1.47 1.39 1.47 1.49 1.34 1.39 1.41 1.44 1.40 1.26 1.11 1.21 1.31 1.69
0.33 0.32 0.31 0.32 0.31 0.29 0.32 0.46 0.57 0.64 0.72 0.91 0.98 1.04 1.31 1.42 1.21 1.16 1.29 1.30 1.37 1.55 1.60 1.71 1.91 1.84 1.73 1.82 1.65 1.56 1.51 1.48 1.47 1.54 1.60 1.58 1.55 1.45 1.44 1.26 1.29 1.14 1.23
0.18 0.17 0.19 0.25 0.32 0.31 0.27 0.34 0.46 0.55 0.69 0.84 1.01 1.07 1.31 1.42 1.32 1.34 1.35 1.35 1.40 1.48 1.53 1.69 2.04 2.06 1.88 1.78 1.96 1.93 1.84 1.64 1.56 1.58 1.60 1.69 1.71 1.57 1.56 1.57 1.45 1.24 1.04
0.12 0.10 0.13 0.17 0.26 0.33 0.36 0.42 0.54 0.72 0.85 0.95 1.09 1.15 1.27 1.29 1.30 1.23 1.39 1.48 1.45 1.57 1.64 1.79 2.06 2.25 2.05 1.86 2.19 2.60 2.38 2.11 1.78 1.57 1.56 1.49 1.60 1.61 1.52 1.40 1.32 1.25 1.12
0.08 0.09 0.13 0.21 0.34 0.51 0.67 0.89 1.15 1.43 1.56 1.46 1.32 1.38 1.49 1.57 1.55 1.49 1.57 1.69 1.61 1.65 1.73 1.76 1.84 2.26 2.40 2.17 2.14 2.67 2.54 2.36 2.29 1.81 1.46 1.32 1.50 1.63 1.63 1.49 1.39 1.39 1.32
0.16 0.23 0.32 0.43 0.58 0.76 0.96 1.19 1.45 1.70 1.86 1.87 1.89 1.93 1.90 1.86 1.77 1.66 1.66 1.70 1.71 1.77 1.73 1.61 1.76 2.16 2.60 2.61 2.40 2.21 2.07 2.05 2.24 2.15 1.61 1.34 1.42 1.54 1.69 1.57 1.50 1.50 1.48
0.34 0.47 0.57 0.78 0.94 1.08 1.15 1.25 1.47 1.58 1.65 1.76 1.90 1.96 1.95 1.89 1.78 1.63 1.57 1.63 1.70 1.78 1.77 1.82 2.00 2.29 2.55 2.76 2.71 2.46 2.19 1.96 1.63 1.83 1.84 1.64 1.41 1.33 1.39 1.47 1.57 1.56 1.50
0.63 0.85 0.99 1.09 1.18 1.17 1.16 1.18 1.31 1.45 1.55 1.63 1.77 1.83 1.77 1.65 1.61 1.56 1.54 1.52 1.48 1.55 1.65 1.82 2.07 2.21 2.40 2.62 2.66 2.40 2.22 2.08 1.89 1.77 1.64 1.71 1.69 1.40 1.26 1.24 1.34 1.46 1.46